| time (UTC) | temp F | wind direction | speed knots | gust knots | rain 1hr in | rain 24hr in | rain mn in | humidity % | barometer mb |
| 20260503204115 | 54 | 0.0 | 0.0 | 0.00 | 0.00 | 0.00 | 84 | 1014.6 | |
| 20260503203112 | 54 | 0.0 | 0.0 | 0.00 | 0.01 | 0.00 | 83 | 1014.5 | |
| 20260503202109 | 54 | 0.0 | 0.0 | 0.00 | 0.01 | 0.00 | 83 | 1014.5 | |
| 20260503201105 | 54 | 0.0 | 0.0 | 0.00 | 0.01 | 0.00 | 83 | 1014.4 | |
| 20260503195059 | 54 | 0.0 | 0.0 | 0.00 | 0.01 | 0.00 | 83 | 1014.1 | |
| 20260503194055 | 54 | 0.0 | 0.0 | 0.00 | 0.01 | 0.00 | 82 | 1014.0 | |
| 20260503193053 | 54 | 0.0 | 0.0 | 0.00 | 0.01 | 0.00 | 82 | 1014.0 | |
| 20260503192050 | 54 | 0.0 | 0.0 | 0.00 | 0.01 | 0.00 | 81 | 1013.9 | |
| 20260503191046 | 54 | 0.0 | 0.0 | 0.00 | 0.01 | 0.00 | 81 | 1013.8 | |
| 20260503190103 | 54 | 0.0 | 0.0 | 0.00 | 0.01 | 0.00 | 80 | 1013.8 | |
| 20260503185040 | 55 | 0.0 | 0.0 | 0.00 | 0.01 | 0.00 | 80 | 1013.7 | |
| 20260503184036 | 55 | 0.0 | 0.0 | 0.00 | 0.01 | 0.00 | 80 | 1013.6 | |
| 20260503183054 | 55 | 0.0 | 0.0 | 0.00 | 0.01 | 0.00 | 80 | 1013.5 | |
| 20260503182030 | 55 | 0.0 | 0.0 | 0.00 | 0.01 | 0.00 | 79 | 1013.5 | |
| 20260503181047 | 56 | 0.0 | 0.0 | 0.00 | 0.01 | 0.00 | 76 | 1013.4 | |
| 20260503180025 | 56 | 0.0 | 0.0 | 0.00 | 0.01 | 0.00 | 75 | 1013.3 | |
| 20260503175020 | 57 | 0.0 | 0.0 | 0.00 | 0.01 | 0.00 | 74 | 1013.2 | |
| 20260503174017 | 57 | 0.0 | 0.0 | 0.00 | 0.01 | 0.00 | 74 | 1013.2 | |
| 20260503173114 | 57 | 0.0 | 0.0 | 0.00 | 0.01 | 0.00 | 74 | 1013.0 | |
| 20260503172111 | 57 | 0.0 | 0.0 | 0.00 | 0.01 | 0.00 | 74 | 1013.0 | |
| 20260503171108 | 57 | 0.0 | 0.0 | 0.00 | 0.01 | 0.00 | 74 | 1012.9 | |
| 20260503170104 | 58 | 0.0 | 0.0 | 0.00 | 0.01 | 0.00 | 73 | 1012.9 | |
| 20260503140107 | 59 | 0.0 | 0.0 | 0.00 | 0.01 | 0.00 | 67 | 1013.2 | |
| 20260503131051 | 62 | 0.0 | 0.0 | 0.00 | 0.01 | 0.00 | 62 | 1013.1 | |
| 20260503110109 | 58 | 0.0 | 0.0 | 0.00 | 0.01 | 0.00 | 73 | 1012.9 | |
| 20260503081015 | 53 | 0.0 | 0.0 | 0.00 | 0.01 | 0.00 | 91 | 1012.8 | |
| 20260503080112 | 53 | 0.0 | 0.0 | 0.00 | 0.01 | 0.00 | 91 | 1012.9 | |
| 20260503072059 | 53 | 0.0 | 0.9 | 0.00 | 0.01 | 0.00 | 91 | 1012.8 | |
| 20260503071056 | 53 | 0.0 | 0.0 | 0.00 | 0.01 | 0.00 | 91 | 1012.7 | |
| 20260503055030 | 52 | 0.0 | 0.0 | 0.00 | 0.01 | 0.00 | 92 | 1012.1 | |
| 20260503054028 | 52 | 0.0 | 0.0 | 0.00 | 0.01 | 0.00 | 92 | 1012.1 | |
| 20260503053044 | 52 | 0.0 | 0.0 | 0.00 | 0.01 | 0.00 | 92 | 1012.0 | |
| 20260503052021 | 52 | 0.0 | 0.0 | 0.00 | 0.01 | 0.00 | 92 | 1012.0 | |
| 20260503051018 | 52 | 0.0 | 0.0 | 0.00 | 0.01 | 0.00 | 92 | 1011.9 | |
| 20260503050115 | 52 | 0.0 | 0.0 | 0.00 | 0.01 | 0.00 | 92 | 1011.8 | |
| 20260503045112 | 52 | 0.0 | 0.0 | 0.00 | 0.01 | 0.00 | 92 | 1011.8 | |
| 20260503044108 | 52 | 0.0 | 0.0 | 0.00 | 0.01 | 0.00 | 92 | 1011.9 | |
| 20260503043105 | 52 | 0.0 | 0.0 | 0.00 | 0.01 | 0.00 | 92 | 1011.9 | |
| 20260503042102 | 52 | 0.0 | 0.0 | 0.00 | 0.01 | 0.00 | 92 | 1012.0 | |
| 20260503041140 | 52 | 0.0 | 0.0 | 0.00 | 0.01 | 0.00 | 92 | 1011.9 | |
| 20260503040055 | 52 | 0.0 | 0.0 | 0.00 | 0.01 | 0.00 | 92 | 1012.0 | |
| 20260503035112 | 52 | 0.0 | 0.0 | 0.00 | 0.01 | 0.00 | 92 | 1012.1 | |
| 20260503034049 | 52 | 0.0 | 0.0 | 0.00 | 0.01 | 0.00 | 92 | 1012.2 | |
| 20260503033046 | 52 | 0.0 | 0.0 | 0.00 | 0.01 | 0.00 | 92 | 1012.3 | |
| 20260503032043 | 52 | 0.0 | 0.0 | 0.00 | 0.01 | 0.00 | 92 | 1012.3 | |
| 20260503031040 | 52 | 0.0 | 0.0 | 0.00 | 0.01 | 0.00 | 92 | 1012.3 | |
| 20260503030037 | 52 | 0.0 | 0.0 | 0.00 | 0.01 | 0.00 | 92 | 1012.4 | |
| 20260503025033 | 52 | 0.0 | 0.0 | 0.00 | 0.01 | 0.00 | 92 | 1012.3 | |
| 20260503024030 | 52 | 0.0 | 0.0 | 0.00 | 0.01 | 0.00 | 92 | 1012.3 | |
| 20260503023047 | 52 | 0.0 | 0.0 | 0.00 | 0.01 | 0.00 | 92 | 1012.4 | |
| 20260503022024 | 52 | 0.0 | 0.0 | 0.00 | 0.01 | 0.00 | 92 | 1012.4 | |
| 20260503021020 | 52 | 0.0 | 0.0 | 0.00 | 0.01 | 0.00 | 92 | 1012.4 | |
| 20260503020017 | 52 | 0.0 | 0.0 | 0.00 | 0.01 | 0.00 | 92 | 1012.5 | |
| 20260503015114 | 52 | 0.0 | 0.0 | 0.00 | 0.01 | 0.00 | 92 | 1012.4 | |
| 20260503014111 | 52 | 0.0 | 0.0 | 0.00 | 0.01 | 0.00 | 92 | 1012.5 | |
| 20260503013107 | 52 | 0.0 | 0.0 | 0.00 | 0.01 | 0.00 | 92 | 1012.6 | |
| 20260503012124 | 52 | 0.0 | 0.0 | 0.00 | 0.01 | 0.00 | 92 | 1012.7 | |
| 20260503011101 | 52 | 0.0 | 0.0 | 0.00 | 0.01 | 0.00 | 92 | 1012.8 | |
| 20260503010058 | 52 | 0.0 | 0.0 | 0.00 | 0.01 | 0.00 | 92 | 1012.8 | |
| 20260503005055 | 52 | 0.0 | 0.0 | 0.00 | 0.01 | 0.00 | 91 | 1012.9 | |
| 20260503004112 | 52 | 0.0 | 0.0 | 0.00 | 0.01 | 0.00 | 91 | 1012.9 | |
| 20260503003048 | 52 | 0.0 | 0.0 | 0.00 | 0.01 | 0.00 | 91 | 1013.0 | |
| 20260503002045 | 52 | 0.0 | 0.0 | 0.00 | 0.01 | 0.00 | 91 | 1013.0 | |
| 20260503001102 | 52 | 0.0 | 0.0 | 0.00 | 0.01 | 0.00 | 92 | 1013.1 | |
| 20260503000039 | 52 | 0.0 | 0.0 | 0.00 | 0.01 | 0.00 | 91 | 1013.0 | |
| 20260502235035 | 52 | 0.0 | 0.0 | 0.00 | 0.01 | 0.00 | 91 | 1013.1 | |
| 20260502234032 | 52 | 0.0 | 0.0 | 0.00 | 0.01 | 0.00 | 91 | 1013.0 | |
| 20260502233029 | 52 | 0.0 | 0.0 | 0.00 | 0.01 | 0.00 | 90 | 1013.2 | |
| 20260502232026 | 52 | 0.0 | 0.0 | 0.00 | 0.01 | 0.00 | 91 | 1013.2 | |
| 20260502231023 | 52 | 0.0 | 0.0 | 0.00 | 0.01 | 0.00 | 89 | 1013.2 | |
| 20260502230019 | 52 | 0.0 | 0.0 | 0.00 | 0.01 | 0.00 | 89 | 1013.2 | |
| 20260502225016 | 52 | 0.0 | 0.0 | 0.00 | 0.01 | 0.01 | 89 | 1013.1 | |
| 20260502224113 | 52 | 0.0 | 0.0 | 0.00 | 0.01 | 0.01 | 89 | 1013.2 | |
| 20260502223110 | 53 | 0.0 | 0.0 | 0.00 | 0.01 | 0.01 | 89 | 1013.2 | |
| 20260502222106 | 53 | 0.0 | 0.0 | 0.00 | 0.01 | 0.01 | 89 | 1013.3 | |
| 20260502221104 | 53 | 0.0 | 0.0 | 0.00 | 0.01 | 0.01 | 89 | 1013.2 | |
| 20260502220100 | 53 | 0.0 | 0.0 | 0.00 | 0.01 | 0.01 | 88 | 1013.2 | |
| 20260502215057 | 53 | 0.0 | 0.0 | 0.00 | 0.01 | 0.01 | 87 | 1013.2 | |
| 20260502214053 | 53 | 0.0 | 0.0 | 0.00 | 0.01 | 0.01 | 87 | 1013.2 | |
| 20260502213050 | 53 | 0.0 | 0.0 | 0.01 | 0.01 | 0.01 | 86 | 1013.2 | |
| 20260502212107 | 53 | 0.0 | 0.0 | 0.01 | 0.01 | 0.01 | 85 | 1013.2 | |
| 20260502211044 | 53 | 0.0 | 0.0 | 0.01 | 0.01 | 0.01 | 85 | 1013.2 | |
| 20260502210041 | 54 | 0.0 | 0.0 | 0.01 | 0.01 | 0.01 | 83 | 1013.1 | |
| 20260502205038 | 54 | 0.0 | 0.0 | 0.01 | 0.01 | 0.01 | 83 | 1013.1 |